Regional Weather Roundup
Issued by NWS Raleigh/Durham, NC

Home | Current Version | Previous Version | Text Only | Print | Product List | Glossary On
Versions: 1 2 3 4 5 6 7 8 9 10 11 12 13 14 15 16 17 18 19 20 21 22 23 24 25 26 27
000
ASUS42 KRAH 201710
RWRRAH
NORTH CAROLINA WEATHER ROUNDUP
NATIONAL WEATHER SERVICE RALEIGH NC
100 PM EDT SUN MAY 20 2018

NOTE: "FAIR" INDICATES FEW OR NO CLOUDS BELOW 12,000 FEET WITH NO
SIGNIFICANT WEATHER AND/OR OBSTRUCTIONS TO VISIBILITY.

NCZ001-053-055-056-065-067-201800-
WESTERN NORTH CAROLINA

CITY           SKY/WX    TMP DP  RH WIND       PRES   REMARKS
ASHEVILLE      FAIR      81  65  58 NW6       30.21S
JEFFERSON      FAIR      76  58  54 W6        30.24S
MORGANTON      FAIR      82  67  60 S3        30.19S
HICKORY        FAIR      79  72  79 VRB5      30.15S
RUTHERFORDTON  NOT AVBL
MOUNT AIRY     NOT AVBL
BOONE          FAIR      77  54  44 NW7G16    30.25F
$$

NCZ021-022-025-041-071-084-088-201800-
CENTRAL NORTH CAROLINA

CITY           SKY/WX    TMP DP  RH WIND       PRES   REMARKS
CHARLOTTE      FAIR      80  71  74 CALM      30.15F
GREENSBORO     PTSUNNY   82  69  64 SW8       30.13F
WINSTON-SALEM  FAIR      81  68  64 SW7       30.15F
RALEIGH-DURHAM PTSUNNY   79  73  82 SW9       30.14F
FORT BRAGG     PTSUNNY   79  69  72 SW9       30.14F
FAYETTEVILLE   CLOUDY    80  69  69 SW8       30.14F
BURLINGTON     FAIR      83  68  60 VRB5      30.12F
LAURINBURG     CLOUDY    80  70  71 SW7       30.15F
$$

NCZ011-015-027-028-043-044-047-080-103-201800-
NORTHEASTERN NORTH CAROLINA

CITY           SKY/WX    TMP DP  RH WIND       PRES   REMARKS
ROCKY MT-WILSO CLOUDY    77  70  79 W8        30.14S
GREENVILLE     FAIR      81  72  74 SW9       30.13F
WASHINGTON     PTSUNNY   82  69  66 SW6       30.13F
ELIZABETH CITY FAIR      81  71  71 S17       30.12S
MANTEO         PTSUNNY   78  70  76 SW24G30   30.13F
CAPE HATTERAS  CLOUDY    77  71  82 SW15G23   30.18S
$$

NCZ078-087-090-091-093-098-101-201800-
SOUTHEASTERN NORTH CAROLINA

CITY           SKY/WX    TMP DP  RH WIND       PRES   REMARKS
LUMBERTON      PTSUNNY   84  69  60 S5        30.13F
GOLDSBORO      PTSUNNY  N/A N/A N/A SW10      30.13F
KINSTON        FAIR      82  70  65 SW10      30.14S
KENANSVILLE    PTSUNNY   81  70  69 SW5       30.15F
NEW BERN       PTSUNNY   77  71  82 SW8       30.16S
CHERRY POINT   NOT AVBL
BEAUFORT       FAIR      76  71  85 SW15      30.17F
JACKSONVILLE   CLOUDY    77  73  87 S10       30.15F
WILMINGTON     FAIR      80  72  76 S10G22    30.16F
$$





USA.gov is the U.S. government's official web portal to all federal, state and local government web resources and services.